Location: Chervonnoye
(48.6000°N, 34.4000°E)
Time: 19:21:44
(UTC+00:00)

SL-08 R/B - Pass Details

Date: 23 November 2020
Orbit: 951 x 1018 km, 82.9° (Epoch: 27 January)

Event Time Altitude Azimuth Distance (km) Brightness Sun altitude
Rises 16:04:36 0° 353° (N) 3,678 7.5 -21.0°
Reaches altitude 10° 16:07:12 10° 358° (N) 2,717 6.8 -21.5°
Maximum altitude 16:13:17 56° 76° (ENE) 1,134 4.4 -22.5°
Drops below altitude 10° 16:19:16 10° 154° (SSE) 2,672 6.6 -23.4°
Sets 16:21:48 0° 159° (SSE) 3,612 7.3 -23.9°
